Weather Roundup
Issued by NWS Chicago, IL

Home | Current Version | Previous Version | Graphics & Text | Print | Product List | Glossary On
Versions: 1 2 3 4 5 6 7 8 9 10 11 12 13 14 15 16 17 18 19 20 21 22 23 24 25 26 27 28 29 30 31 32 33 34 35 36 37 38 39 40 41 42 43 44 45 46 47 48 49 50
674
NZUS59 KLOT 072108
HRRLOT

CHICAGO AREA WEATHER ROUNDUP
NATIONAL WEATHER SERVICE CHICAGO/ROMEOVILLE IL
300 PM CST WED DEC 07 2016

NOTE: "FAIR" INDICATES FEW OR NO CLOUDS BELOW 12,000 FEET WITH NO
SIGNIFICANT WEATHER AND/OR OBSTRUCTIONS TO VISIBILITY.

* THESE STATIONS ARE NOT UNDER NWS QUALITY CONTROL. THEY ALSO MAY NOT
  REPORT WEATHER SUCH AS PRECIPITATION OR FOG.

ILZ005-006-012>014-019>023-072200-
NORTHEAST ILLINOIS

CITY           SKY/WX    TMP DP  RH WIND       PRES   REMARKS
OHARE          PTSUNNY   26  18  71 SW15      30.09R WCI  14
MIDWAY         CLOUDY    28  18  66 SW16      30.10R WCI  16
AURORA         MOSUNNY   26  19  74 W17       30.12R WCI  13
LANSING*       PTSUNNY   29  24  79 W10G20    30.11S WCI  20
JOLIET*        CLOUDY    29  22  73 W12       30.14R WCI  20
WAUKEGAN       SUNNY     27  18  69 SW13G23   30.04R WCI  16
DUPAGE AIRPORT MOSUNNY   25  17  72 SW17      30.10R WCI  12
WHEELING       MOSUNNY   27  17  66 SW12      30.09R WCI  17
KANKAKEE*      MOSUNNY   31  22  71 W13       30.14S WCI  21
MORRIS*        CLOUDY    28  21  75 W13       30.13R WCI  18
LEWIS AIRPORT* MOSUNNY   27  23  85 W16       30.12S WCI  14
NORTHERLY ISL    N/A     29  18  63 S12         N/A  WCI  19
$$

WIZ051-052-058>065-066-070>072-072200-
SOUTHEAST WISCONSIN

CITY           SKY/WX    TMP DP  RH WIND       PRES   REMARKS
MILWAUKEE      PTSUNNY   27  15  61 W13G24    30.02R WCI  16
KENOSHA*       MOSUNNY   27  18  69 W17G25    30.03R WCI  14
RACINE*        MOSUNNY   27  16  63 W17G23    30.04R WCI  14
BURLINGTON     PTSUNNY   24  17  74 W14G20    30.04S WCI  12
WAUKESHA       MOSUNNY   23  14  68 W17G23    30.02R WCI   9
$$

INZ001>003-010>013-019-020-072200-
NORTHWEST INDIANA

CITY           SKY/WX    TMP DP  RH WIND       PRES   REMARKS
GARY*          CLOUDY    30  21  69 MISG      30.11
MICHIGAN CITY* NOT AVBL
RENSSELAER*    NOT AVBL
VALPARAISO     PTSUNNY   30  21  69 SW16      30.10R WCI  19
$$

LMZ740>746-072200-
SOUTHERN LAKE MICHIGAN

STATION/POSITION TIME  SKY/WX   TEMP WIND        PRES    VSBY
                                AIR  DIR/SP/G
                 (UTC)          (F)  (DEG/KT/KT) (MB)    (MI)
HARRISON CRIB    2040            30  240/ 14/ 18   N/A
BURNHAM HARBOR   2100            28  220/ 10/ 15   N/A
CALUMET HARBOR   2048            29  230/  8/ 16 1018.7R
BURNS HARBOR     2040            31  260/ 17/ 20 1019.6R
MICHIGAN CITY    2040            31  220/ 15/ 21   N/A
$$

ABBREVIATIONS USED IN REMARKS
   TC - TEMPERATURE IN CELSIUS
  WCI - WIND CHILL INDEX
   HX - HEAT INDEX
  VSB - VISIBILITY
$$




USA.gov is the U.S. government's official web portal to all federal, state and local government web resources and services.